Location: Beemte
(52.2555°N, 5.9895°E)
Time: 19:59:27
(UTC+00:00)

Cosmos 2221 - Pass Details

Date: 15 May 2026
Orbit: 569 x 587 km, 82.5° (Epoch: 8 June)

Event Time Altitude Azimuth Distance (km) Brightness Sun altitude
Exits shadow 22:03:19 23° 118° (ESE) 1,247 3.7 -16.1°
Maximum altitude 22:04:33 27° 89° (E) 1,129 3.7 -16.2°
Drops below altitude 10° 22:08:06 10° 31° (NNE) 1,908 5.6 -16.4°
Sets 22:10:33 0° 20° (NNE) 2,817 6.8 -16.5°
